Hourly Weather Roundup
Issued by NWS Central Illinois

Home | Current Version | Previous Version | Text Only | Print | Product List | Glossary On
Versions: 1 2 3 4 5 6 7 8 9 10 11 12 13 14 15 16 17 18 19 20 21 22 23 24 25 26 27 28 29 30 31 32 33 34 35 36 37 38 39 40 41 42 43 44 45 46 47 48 49 50
000
NZUS43 KILX 050210
HWRILX

AREA WEATHER ROUNDUP
NATIONAL WEATHER SERVICE, LINCOLN IL
900 PM CDT SAT JUL 04 2015


CITY           SKY/WX    TMP DP  RH WIND       PRES   REMARKS
BLOOMINGTON    CLEAR     72  63  73 SE5       30.03R
CHAMPAIGN      CLEAR     68  64  87 S3        30.03R
DANVILLE       CLEAR     66  64  93 CALM      30.00R
DECATUR        MOCLDY    72  63  73 SE3       30.02R
EFFINGHAM      PTCLDY    70  65  83 CALM      30.02R
FLORA          CLOUDY    73  66  80 CALM      30.01R
GALESBURG      CLEAR     67  63  87 CALM      30.00R
JACKSONVILLE   MOCLDY    74  69  85 E5        30.01R
LACON          CLEAR     69  63  80 CALM      30.00R
LAWRENCEVILLE  CLOUDY    72  68  87 NE7       30.00R
LITCHFIELD     CLEAR     68  63  85 E3        30.01S
$$


CITY           SKY/WX    TMP DP  RH WIND       PRES   REMARKS
LINCOLN        CLEAR     71  65  80 CALM      30.01R
MACOMB         CLEAR     69  66  90 E5        30.02R
MATTOON        CLEAR     70  64  81 CALM      30.01R
MT CARMEL AP   CLOUDY    73  68  83 CALM      30.00R
OLNEY-NOBLE AP MOCLDY    72  70  94 CALM      30.00S
PARIS          PTCLDY    68  65  89 CALM      30.03R
PEORIA         CLEAR     74  61  63 CALM      30.01R
PONTIAC        CLEAR     70  66  88 CALM      30.02R
RANTOUL        CLEAR     71  66  85 CALM      30.02R
ROBINSON       MOCLDY    72  68  88 CALM      30.01S
SPRINGFIELD    MOCLDY    75  65  70 SE5       30.01R
TAYLORVILLE    MOCLDY    70  63  78 SE3       30.02R
$$

...REGIONAL REPORTS...


CITY           SKY/WX    TMP DP  RH WIND       PRES   REMARKS
CHICAGO O`HARE CLEAR     73  56  54 E8        29.99R
KANKAKEE       LGT RAIN  71  63  77 CALM      30.02R
MOLINE         CLEAR     69  63  81 S5        29.98S
MOUNT STERLING NOT AVBL
MOUNT VERNON   MOCLDY    70  63  78 CALM      30.00S
PITTSFIELD     CLEAR     72  67  86 CALM      30.01R
QUINCY         CLEAR     75  61  61 E6        29.99R
ROCKFORD       CLEAR     72  63  73 S3        30.01R
$$


CITY           SKY/WX    TMP DP  RH WIND       PRES   REMARKS
BURLINGTON     CLEAR     70  66  87 CALM      29.99R
CEDAR RAPIDS   CLEAR     68  66  93 CALM      29.97S
DES MOINES     MOCLDY    76  60  57 SE6       29.94S
KIRKSVILLE     LGT RAIN  71  61  70 E6        29.99S
OTTUMWA        CLEAR     69  63  81 SE7       29.96R
ST LOUIS       PTCLDY    76  62  62 E6        30.00R
$$


CITY           SKY/WX    TMP DP  RH WIND       PRES   REMARKS
TERRE HAUTE    PTCLDY    70  65  84 N3        30.02R
EVANSVILLE     CLOUDY    76  68  76 N3        29.99S HAZE
INDIANAPOLIS   PTCLDY    74  56  53 N6        30.01R
LAFAYETTE      CLEAR     68  62  81 CALM      30.01R
MADISON        PTCLDY    74  62  66 SW3       29.97S
MILWAUKEE      MOCLDY    71  56  58 S6        29.98S
$$




USA.gov is the U.S. government's official web portal to all federal, state and local government web resources and services.